Time,TemperatureF,DewpointF,PressureIn,WindDirection,WindDirectionDegrees,WindSpeedMPH,WindSpeedGustMPH,Humidity,HourlyPrecipIn,Conditions,Clouds,dailyrainin,SoftwareType,DateUTC
2013-01-16 00:02:00,23.0,20.0,30.11,NNW,344,1.0,2.0,88,0.00,,,0.00,,2013-01-16 06:02:00,
2013-01-16 00:12:00,23.0,20.0,30.11,NNW,344,1.0,2.0,88,0.00,,,0.00,,2013-01-16 06:12:00,
2013-01-16 00:22:00,23.0,20.0,30.11,NNW,344,0.0,2.0,88,0.00,,,0.00,,2013-01-16 06:22:00,
2013-01-16 00:32:00,23.0,20.0,30.10,NNW,344,0.0,0.0,89,0.00,,,0.00,,2013-01-16 06:32:00,
2013-01-16 00:43:00,23.0,20.0,30.10,NNW,344,0.0,0.0,89,0.00,,,0.00,,2013-01-16 06:43:00,
2013-01-16 00:52:00,23.0,20.0,30.10,NNW,344,0.0,0.0,89,0.00,,,0.00,,2013-01-16 06:52:00,
2013-01-16 01:02:00,23.0,20.0,30.10,NNW,344,0.0,1.0,89,0.00,,,0.00,,2013-01-16 07:02:00,
2013-01-16 01:12:00,23.0,20.0,30.10,NNW,344,0.0,1.0,89,0.00,,,0.00,,2013-01-16 07:12:00,
2013-01-16 01:22:00,23.0,20.0,30.09,NNW,344,0.0,0.0,89,0.00,,,0.00,,2013-01-16 07:22:00,
2013-01-16 01:32:00,23.0,20.0,30.08,NNW,344,0.0,0.0,89,0.00,,,0.00,,2013-01-16 07:32:00,
2013-01-16 01:42:00,23.0,20.0,30.08,NNW,344,0.0,0.0,89,0.00,,,0.00,,2013-01-16 07:42:00,
2013-01-16 01:52:00,22.0,19.0,30.09,NNW,344,0.0,0.0,89,0.00,,,0.00,,2013-01-16 07:52:00,
2013-01-16 02:02:00,22.0,19.0,30.09,NNW,344,0.0,0.0,88,0.00,,,0.00,,2013-01-16 08:02:00,
2013-01-16 02:12:00,22.0,19.0,30.09,NNW,344,0.0,0.0,88,0.00,,,0.00,,2013-01-16 08:12:00,
2013-01-16 02:22:00,22.0,20.0,30.10,NNW,344,0.0,0.0,90,0.00,,,0.00,,2013-01-16 08:22:00,
2013-01-16 02:32:00,23.0,21.0,30.10,NNW,344,0.0,0.0,90,0.00,,,0.00,,2013-01-16 08:32:00,
2013-01-16 02:42:00,23.0,21.0,30.10,NNW,344,0.0,0.0,90,0.00,,,0.00,,2013-01-16 08:42:00,
2013-01-16 02:52:00,23.0,21.0,30.10,NNW,344,0.0,0.0,90,0.00,,,0.00,,2013-01-16 08:52:00,
2013-01-16 03:02:00,23.0,21.0,30.09,NNW,344,0.0,0.0,90,0.00,,,0.00,,2013-01-16 09:02:00,
2013-01-16 03:12:00,23.0,21.0,30.09,NNW,344,0.0,0.0,90,0.00,,,0.00,,2013-01-16 09:12:00,
2013-01-16 03:22:00,23.0,20.0,30.09,NNW,344,0.0,0.0,89,0.00,,,0.00,,2013-01-16 09:22:00,
2013-01-16 03:32:00,24.0,21.0,30.09,NNW,344,0.0,1.0,89,0.00,,,0.00,,2013-01-16 09:32:00,
2013-01-16 03:42:00,24.0,21.0,30.09,NNW,344,0.0,1.0,89,0.00,,,0.00,,2013-01-16 09:42:00,
2013-01-16 03:52:00,24.0,21.0,30.09,NNW,344,0.0,1.0,89,0.00,,,0.00,,2013-01-16 09:52:00,
2013-01-16 04:02:00,24.0,21.0,30.08,NNW,344,0.0,1.0,89,0.00,,,0.00,,2013-01-16 10:02:00,
2013-01-16 04:12:00,24.0,21.0,30.08,NNW,344,0.0,1.0,89,0.00,,,0.00,,2013-01-16 10:12:00,
2013-01-16 04:22:00,24.0,21.0,30.07,NNW,344,0.0,1.0,89,0.00,,,0.00,,2013-01-16 10:22:00,
2013-01-16 04:32:00,24.0,21.0,30.06,NNW,344,0.0,1.0,89,0.00,,,0.00,,2013-01-16 10:32:00,
2013-01-16 04:42:00,24.0,21.0,30.06,NNW,344,0.0,1.0,89,0.00,,,0.00,,2013-01-16 10:42:00,
2013-01-16 04:52:00,24.0,21.0,30.05,NNW,344,0.0,1.0,89,0.00,,,0.00,,2013-01-16 10:52:00,
2013-01-16 05:02:00,24.0,21.0,30.05,NNW,344,0.0,1.0,89,0.00,,,0.00,,2013-01-16 11:02:00,
2013-01-16 05:12:00,24.0,21.0,30.05,NNW,344,0.0,1.0,89,0.00,,,0.00,,2013-01-16 11:12:00,
2013-01-16 05:22:00,23.0,20.0,30.05,NNW,344,0.0,1.0,89,0.00,,,0.00,,2013-01-16 11:22:00,
2013-01-16 05:32:00,23.0,20.0,30.05,NNW,344,0.0,0.0,89,0.00,,,0.00,,2013-01-16 11:32:00,
2013-01-16 05:42:00,23.0,20.0,30.05,NNW,344,0.0,0.0,89,0.00,,,0.00,,2013-01-16 11:42:00,
2013-01-16 05:52:00,23.0,20.0,30.03,NNW,344,0.0,0.0,89,0.00,,,0.00,,2013-01-16 11:52:00,
2013-01-16 06:03:00,23.0,20.0,30.03,NNW,344,0.0,0.0,89,0.00,,,0.00,,2013-01-16 12:03:00,
2013-01-16 06:12:00,23.0,20.0,30.03,NNW,344,0.0,0.0,89,0.00,,,0.00,,2013-01-16 12:12:00,
2013-01-16 06:22:00,22.0,19.0,30.03,NNW,344,0.0,1.0,89,0.00,,,0.00,,2013-01-16 12:22:00,
2013-01-16 06:33:00,22.0,19.0,30.03,NNW,344,0.0,0.0,89,0.00,,,0.00,,2013-01-16 12:33:00,
2013-01-16 06:43:00,22.0,19.0,30.03,NNW,344,0.0,0.0,89,0.00,,,0.00,,2013-01-16 12:43:00,
2013-01-16 06:53:00,21.0,18.0,30.02,NNW,344,0.0,0.0,89,0.00,,,0.00,,2013-01-16 12:53:00,
2013-01-16 07:03:00,21.0,18.0,30.03,NNW,344,0.0,0.0,89,0.00,,,0.00,,2013-01-16 13:03:00,
2013-01-16 07:12:00,21.0,18.0,30.03,NNW,344,0.0,0.0,89,0.00,,,0.00,,2013-01-16 13:12:00,
2013-01-16 07:22:00,20.0,18.0,30.03,NNW,344,0.0,1.0,90,0.00,,,0.00,,2013-01-16 13:22:00,
2013-01-16 07:33:00,20.0,18.0,30.03,NNW,344,0.0,1.0,90,0.00,,,0.00,,2013-01-16 13:33:00,
2013-01-16 07:43:00,20.0,18.0,30.03,NNW,344,0.0,1.0,90,0.00,,,0.00,,2013-01-16 13:43:00,
2013-01-16 07:52:00,20.0,18.0,30.04,NNW,344,2.0,4.0,90,0.00,,,0.00,,2013-01-16 13:52:00,
2013-01-16 08:03:00,21.0,19.0,30.04,NNW,344,4.0,6.0,90,0.00,,,0.00,,2013-01-16 14:03:00,
2013-01-16 08:12:00,21.0,19.0,30.04,NNW,344,4.0,6.0,90,0.00,,,0.00,,2013-01-16 14:12:00,
2013-01-16 08:22:00,22.0,20.0,30.06,NNW,344,3.0,6.0,90,0.00,,,0.00,,2013-01-16 14:22:00,
2013-01-16 08:33:00,23.0,21.0,30.06,NNW,344,5.0,8.0,90,0.00,,,0.00,,2013-01-16 14:33:00,
2013-01-16 08:42:00,23.0,21.0,30.06,NNW,344,5.0,8.0,90,0.00,,,0.00,,2013-01-16 14:42:00,
2013-01-16 08:53:00,24.0,22.0,30.06,NNW,344,7.0,10.0,90,0.00,,,0.00,,2013-01-16 14:53:00,
2013-01-16 09:03:00,25.0,22.0,30.06,NNW,344,7.0,10.0,88,0.00,,,0.00,,2013-01-16 15:03:00,
2013-01-16 09:12:00,25.0,22.0,30.06,NNW,344,7.0,10.0,88,0.00,,,0.00,,2013-01-16 15:12:00,
2013-01-16 09:22:00,25.0,22.0,30.05,NNW,344,7.0,12.0,87,0.00,,,0.00,,2013-01-16 15:22:00,
2013-01-16 09:33:00,26.0,22.0,30.05,NNW,344,7.0,11.0,86,0.00,,,0.00,,2013-01-16 15:33:00,
2013-01-16 09:43:00,26.0,22.0,30.05,NNW,344,7.0,11.0,86,0.00,,,0.00,,2013-01-16 15:43:00,
2013-01-16 09:52:00,27.0,23.0,30.05,NNW,344,7.0,11.0,86,0.00,,,0.00,,2013-01-16 15:52:00,
2013-01-16 10:03:00,28.0,24.0,30.05,NNW,344,9.0,15.0,83,0.00,,,0.00,,2013-01-16 16:03:00,
2013-01-16 10:12:00,28.0,24.0,30.05,NNW,344,9.0,15.0,83,0.00,,,0.00,,2013-01-16 16:12:00,
2013-01-16 10:22:00,28.0,22.0,30.04,NNW,344,10.0,15.0,77,0.00,,,0.00,,2013-01-16 16:22:00,
2013-01-16 10:33:00,29.0,23.0,30.05,NNW,344,9.0,15.0,78,0.00,,,0.00,,2013-01-16 16:33:00,
2013-01-16 10:42:00,29.0,23.0,30.05,NNW,344,9.0,15.0,78,0.00,,,0.00,,2013-01-16 16:42:00,
2013-01-16 10:52:00,29.0,21.0,30.04,NNW,344,10.0,15.0,73,0.00,,,0.00,,2013-01-16 16:52:00,
2013-01-16 11:03:00,30.0,22.0,30.03,NNW,344,8.0,15.0,72,0.00,,,0.00,,2013-01-16 17:03:00,
2013-01-16 11:12:00,30.0,22.0,30.03,NNW,344,8.0,15.0,72,0.00,,,0.00,,2013-01-16 17:12:00,
2013-01-16 11:22:00,31.0,22.0,30.01,WSW,246,8.0,13.0,68,0.00,,,0.00,,2013-01-16 17:22:00,
2013-01-16 11:33:00,32.0,22.0,30.00,SW,217,8.0,15.0,66,0.00,,,0.00,,2013-01-16 17:33:00,
2013-01-16 11:43:00,32.0,22.0,30.00,SW,217,8.0,15.0,66,0.00,,,0.00,,2013-01-16 17:43:00,
2013-01-16 11:53:00,32.0,22.0,30.00,SW,215,9.0,16.0,66,0.00,,,0.00,,2013-01-16 17:53:00,
2013-01-16 12:03:00,33.0,23.0,29.99,SW,228,9.0,17.0,65,0.00,,,0.00,,2013-01-16 18:03:00,
2013-01-16 12:12:00,33.0,23.0,29.99,SW,228,9.0,17.0,65,0.00,,,0.00,,2013-01-16 18:12:00,
2013-01-16 12:23:00,33.0,21.0,29.99,WSW,244,10.0,15.0,61,0.00,,,0.00,,2013-01-16 18:23:00,
2013-01-16 12:33:00,33.0,21.0,29.98,SW,219,11.0,17.0,62,0.00,,,0.00,,2013-01-16 18:33:00,
2013-01-16 12:42:00,33.0,21.0,29.98,SW,219,11.0,17.0,62,0.00,,,0.00,,2013-01-16 18:42:00,
2013-01-16 12:53:00,34.0,23.0,29.97,SW,232,12.0,17.0,63,0.00,,,0.00,,2013-01-16 18:53:00,
2013-01-16 13:03:00,34.0,22.0,29.97,SW,215,12.0,18.0,62,0.00,,,0.00,,2013-01-16 19:03:00,
2013-01-16 13:12:00,34.0,22.0,29.97,SW,215,12.0,18.0,62,0.00,,,0.00,,2013-01-16 19:12:00,
2013-01-16 13:23:00,34.0,23.0,29.97,SSW,211,14.0,17.0,64,0.00,,,0.00,,2013-01-16 19:23:00,
2013-01-16 13:33:00,35.0,24.0,29.96,SW,225,12.0,19.0,64,0.00,,,0.00,,2013-01-16 19:33:00,
2013-01-16 13:43:00,35.0,24.0,29.96,SW,225,12.0,19.0,64,0.00,,,0.00,,2013-01-16 19:43:00,
2013-01-16 13:52:00,35.0,24.0,29.95,SSW,213,11.0,16.0,64,0.00,,,0.00,,2013-01-16 19:52:00,
2013-01-16 14:03:00,35.0,25.0,29.95,SW,229,13.0,19.0,66,0.00,,,0.00,,2013-01-16 20:03:00,
2013-01-16 14:12:00,35.0,25.0,29.95,SW,229,13.0,19.0,66,0.00,,,0.00,,2013-01-16 20:12:00,
2013-01-16 14:23:00,35.0,24.0,29.95,SW,225,15.0,19.0,65,0.00,,,0.00,,2013-01-16 20:23:00,
2013-01-16 14:33:00,35.0,25.0,29.95,SSW,213,12.0,19.0,66,0.00,,,0.00,,2013-01-16 20:33:00,
2013-01-16 14:42:00,35.0,25.0,29.95,SSW,213,12.0,19.0,66,0.00,,,0.00,,2013-01-16 20:42:00,
2013-01-16 14:53:00,36.0,26.0,29.93,SW,216,11.0,17.0,67,0.00,,,0.00,,2013-01-16 20:53:00,
2013-01-16 15:03:00,36.0,26.0,29.93,SW,219,12.0,19.0,66,0.00,,,0.00,,2013-01-16 21:03:00,
2013-01-16 15:12:00,36.0,26.0,29.93,SW,219,12.0,19.0,66,0.00,,,0.00,,2013-01-16 21:12:00,
2013-01-16 15:22:00,36.0,26.0,29.92,SSW,207,11.0,20.0,67,0.00,,,0.00,,2013-01-16 21:22:00,
2013-01-16 15:33:00,36.0,27.0,29.93,SSW,211,10.0,20.0,69,0.00,,,0.00,,2013-01-16 21:33:00,
2013-01-16 15:43:00,36.0,27.0,29.93,SSW,211,10.0,20.0,69,0.00,,,0.00,,2013-01-16 21:43:00,
2013-01-16 15:52:00,35.0,26.0,29.93,SW,219,14.0,20.0,69,0.00,,,0.00,,2013-01-16 21:52:00,
2013-01-16 16:02:00,35.0,26.0,29.95,SW,219,11.0,19.0,70,0.00,,,0.00,,2013-01-16 22:02:00,
2013-01-16 16:12:00,35.0,26.0,29.95,SW,219,11.0,19.0,70,0.00,,,0.00,,2013-01-16 22:12:00,
2013-01-16 16:22:00,35.0,27.0,29.95,SSW,208,12.0,16.0,71,0.00,,,0.00,,2013-01-16 22:22:00,
2013-01-16 16:33:00,35.0,27.0,29.96,SW,229,12.0,20.0,71,0.00,,,0.00,,2013-01-16 22:33:00,
2013-01-16 16:43:00,35.0,27.0,29.96,SW,229,12.0,20.0,71,0.00,,,0.00,,2013-01-16 22:43:00,
2013-01-16 16:52:00,34.0,27.0,29.97,SSW,213,8.0,14.0,75,0.00,,,0.00,,2013-01-16 22:52:00,
2013-01-16 17:03:00,34.0,27.0,29.97,SSW,211,7.0,13.0,76,0.00,,,0.00,,2013-01-16 23:03:00,
2013-01-16 17:12:00,33.0,27.0,29.98,SW,220,9.0,15.0,78,0.00,,,0.00,,2013-01-16 23:12:00,
2013-01-16 17:23:00,33.0,27.0,29.98,SW,220,9.0,15.0,78,0.00,,,0.00,,2013-01-16 23:23:00,
2013-01-16 17:32:00,33.0,27.0,29.98,SW,217,8.0,14.0,78,0.00,,,0.00,,2013-01-16 23:32:00,
2013-01-16 17:42:00,33.0,27.0,29.98,SW,217,8.0,14.0,78,0.00,,,0.00,,2013-01-16 23:42:00,
2013-01-16 17:52:00,33.0,27.0,29.98,SW,215,8.0,13.0,79,0.00,,,0.00,,2013-01-16 23:52:00,
2013-01-16 18:02:00,34.0,28.0,29.98,SSW,207,9.0,15.0,78,0.00,,,0.00,,2013-01-17 00:02:00,
2013-01-16 18:12:00,34.0,28.0,29.98,SSW,207,9.0,15.0,78,0.00,,,0.00,,2013-01-17 00:12:00,
2013-01-16 18:22:00,33.0,27.0,29.99,SSW,213,9.0,17.0,78,0.00,,,0.00,,2013-01-17 00:22:00,
2013-01-16 18:32:00,34.0,28.0,30.00,SSW,209,9.0,14.0,78,0.00,,,0.00,,2013-01-17 00:32:00,
2013-01-16 18:42:00,34.0,28.0,30.00,SSW,209,9.0,14.0,78,0.00,,,0.00,,2013-01-17 00:42:00,
2013-01-16 18:52:00,34.0,28.0,30.01,SSW,209,11.0,16.0,78,0.00,,,0.00,,2013-01-17 00:52:00,
2013-01-16 19:02:00,34.0,28.0,30.01,SW,215,9.0,16.0,79,0.00,,,0.00,,2013-01-17 01:02:00,
2013-01-16 19:12:00,34.0,28.0,30.01,SW,215,9.0,16.0,79,0.00,,,0.00,,2013-01-17 01:12:00,
2013-01-16 19:22:00,34.0,28.0,30.02,SW,216,8.0,14.0,80,0.00,,,0.00,,2013-01-17 01:22:00,
2013-01-16 19:33:00,34.0,28.0,30.03,SW,224,8.0,13.0,80,0.00,,,0.00,,2013-01-17 01:33:00,
2013-01-16 19:42:00,34.0,28.0,30.03,SW,224,8.0,13.0,80,0.00,,,0.00,,2013-01-17 01:42:00,
2013-01-16 19:52:00,34.0,28.0,30.03,SW,232,9.0,15.0,80,0.00,,,0.00,,2013-01-17 01:52:00,
2013-01-16 20:02:00,34.0,28.0,30.04,SSW,213,10.0,14.0,80,0.00,,,0.00,,2013-01-17 02:02:00,
2013-01-16 20:12:00,34.0,28.0,30.04,SSW,213,10.0,14.0,80,0.00,,,0.00,,2013-01-17 02:12:00,
2013-01-16 20:22:00,34.0,28.0,30.04,SW,231,8.0,11.0,80,0.00,,,0.00,,2013-01-17 02:22:00,
2013-01-16 20:32:00,34.0,28.0,30.04,SW,223,9.0,13.0,79,0.00,,,0.00,,2013-01-17 02:32:00,
2013-01-16 20:42:00,34.0,28.0,30.04,SW,223,9.0,13.0,79,0.00,,,0.00,,2013-01-17 02:42:00,
2013-01-16 20:52:00,34.0,28.0,30.04,SW,223,9.0,13.0,79,0.00,,,0.00,,2013-01-17 02:52:00,
2013-01-16 21:03:00,34.0,28.0,30.04,SW,221,7.0,12.0,80,0.00,,,0.00,,2013-01-17 03:03:00,
2013-01-16 21:12:00,34.0,28.0,30.04,SW,221,7.0,12.0,80,0.00,,,0.00,,2013-01-17 03:12:00,
2013-01-16 21:22:00,34.0,30.0,30.04,SW,227,7.0,11.0,85,0.00,,,0.00,,2013-01-17 03:22:00,
2013-01-16 21:32:00,34.0,28.0,30.04,SW,223,7.0,10.0,80,0.00,,,0.00,,2013-01-17 03:32:00,
2013-01-16 21:42:00,34.0,28.0,30.04,SW,223,7.0,10.0,80,0.00,,,0.00,,2013-01-17 03:42:00,
2013-01-16 21:52:00,34.0,28.0,30.04,SW,235,7.0,12.0,80,0.00,,,0.00,,2013-01-17 03:52:00,
2013-01-16 22:02:00,34.0,28.0,30.04,SW,236,9.0,12.0,79,0.00,,,0.00,,2013-01-17 04:02:00,
2013-01-16 22:12:00,34.0,28.0,30.05,WSW,241,9.0,13.0,78,0.00,,,0.00,,2013-01-17 04:12:00,
2013-01-16 22:22:00,34.0,28.0,30.05,WSW,241,9.0,13.0,78,0.00,,,0.00,,2013-01-17 04:22:00,
2013-01-16 22:32:00,34.0,28.0,30.05,WSW,241,9.0,13.0,78,0.00,,,0.00,,2013-01-17 04:32:00,
2013-01-16 22:42:00,34.0,28.0,30.05,WSW,241,9.0,13.0,78,0.00,,,0.00,,2013-01-17 04:42:00,
2013-01-16 22:52:00,34.0,28.0,30.05,WSW,241,9.0,13.0,78,0.00,,,0.00,,2013-01-17 04:52:00,
2013-01-16 23:04:00,34.0,28.0,30.04,WSW,246,8.0,12.0,78,0.00,,,0.00,,2013-01-17 05:04:00,
2013-01-16 23:12:00,34.0,28.0,30.04,WSW,246,8.0,12.0,78,0.00,,,0.00,,2013-01-17 05:12:00,
2013-01-16 23:22:00,34.0,28.0,30.05,WSW,252,8.0,14.0,78,0.00,,,0.00,,2013-01-17 05:22:00,
2013-01-16 23:33:00,34.0,28.0,30.04,West,259,9.0,12.0,78,0.00,,,0.00,,2013-01-17 05:33:00,
2013-01-16 23:42:00,34.0,28.0,30.04,West,259,9.0,12.0,78,0.00,,,0.00,,2013-01-17 05:42:00,
2013-01-16 23:52:00,34.0,28.0,30.04,West,267,7.0,13.0,79,0.00,,,0.00,,2013-01-17 05:52:00,